owner,sensor,date,latitude,longitude,vertical_datum,wind_speed,wind_to_direction,wind_speed_of_gust,qcFlag 
LUMCON,ioos:station:LUMCON:101:1,2019-09-01T00:00:00Z,29.2533,-90.6633,1.0,5.6,27.0,6.0,'11111222,11111222,11111222' 
LUMCON,ioos:station:LUMCON:101:1,2019-09-01T00:15:00Z,29.2533,-90.6633,1.0,4.9,21.0,5.3,'11111222,11111222,11111222' 
LUMCON,ioos:station:LUMCON:101:1,2019-09-01T00:30:00Z,29.2533,-90.6633,1.0,3.9,13.0,4.3,'11111222,11111222,11111222' 
LUMCON,ioos:station:LUMCON:101:1,2019-09-01T00:45:00Z,29.2533,-90.6633,1.0,4.9,28.0,5.0,'11111222,11111222,11111222' 
LUMCON,ioos:station:LUMCON:101:1,2019-09-01T01:00:00Z,29.2533,-90.6633,1.0,3.8,34.0,5.0,'11111222,11111222,11111222' 
LUMCON,ioos:station:LUMCON:101:1,2019-09-01T01:15:00Z,29.2533,-90.6633,1.0,4.9,34.0,5.5,'11111222,11111222,11111222' 
LUMCON,ioos:station:LUMCON:101:1,2019-09-01T01:30:00Z,29.2533,-90.6633,1.0,5.4,34.0,5.7,'11111222,11111222,11111222' 
LUMCON,ioos:station:LUMCON:101:1,2019-09-01T01:45:00Z,29.2533,-90.6633,1.0,5.9,30.0,6.5,'11111222,11111222,11111222' 
LUMCON,ioos:station:LUMCON:101:1,2019-09-01T02:00:00Z,29.2533,-90.6633,1.0,6.3,25.0,6.6,'11111222,11111222,11111222' 
LUMCON,ioos:station:LUMCON:101:1,2019-09-01T02:15:00Z,29.2533,-90.6633,1.0,6.1,41.0,6.6,'11111222,11111222,11111222' 
LUMCON,ioos:station:LUMCON:101:1,2019-09-01T02:30:00Z,29.2533,-90.6633,1.0,5.3,34.0,6.2,'11111222,11111222,11111222' 
LUMCON,ioos:station:LUMCON:101:1,2019-09-01T02:45:00Z,29.2533,-90.6633,1.0,4.3,53.0,5.0,'11111222,11111222,11111222' 
LUMCON,ioos:station:LUMCON:101:1,2019-09-01T03:00:00Z,29.2533,-90.6633,1.0,4.4,27.0,4.8,'11111222,11111222,11111222' 
LUMCON,ioos:station:LUMCON:101:1,2019-09-01T03:15:00Z,29.2533,-90.6633,1.0,4.1,47.0,4.7,'11111222,11111222,11111222' 
LUMCON,ioos:station:LUMCON:101:1,2019-09-01T03:30:00Z,29.2533,-90.6633,1.0,3.6,35.0,3.9,'11111222,11111222,11111222' 
LUMCON,ioos:station:LUMCON:101:1,2019-09-01T03:45:00Z,29.2533,-90.6633,1.0,4.7,40.0,5.2,'11111222,11111222,11111222' 
LUMCON,ioos:station:LUMCON:101:1,2019-09-01T04:00:00Z,29.2533,-90.6633,1.0,3.9,41.0,4.3,'11111222,11111222,11111222' 
LUMCON,ioos:station:LUMCON:101:1,2019-09-01T04:15:00Z,29.2533,-90.6633,1.0,2.7,21.0,2.9,'11111222,11111222,11111222' 
LUMCON,ioos:station:LUMCON:101:1,2019-09-01T04:30:00Z,29.2533,-90.6633,1.0,3.2,28.0,4.2,'11111222,11111222,11111222' 
LUMCON,ioos:station:LUMCON:101:1,2019-09-01T04:45:00Z,29.2533,-90.6633,1.0,4.9,28.0,5.2,'11111222,11111222,11111222' 
LUMCON,ioos:station:LUMCON:101:1,2019-09-01T05:00:00Z,29.2533,-90.6633,1.0,3.9,37.0,4.5,'11111222,11111222,11111222' 
LUMCON,ioos:station:LUMCON:101:1,2019-09-01T05:15:00Z,29.2533,-90.6633,1.0,3.9,32.0,4.6,'11111222,11111222,11111222' 
LUMCON,ioos:station:LUMCON:101:1,2019-09-01T05:30:00Z,29.2533,-90.6633,1.0,3.1,47.0,3.9,'11111222,11111222,11111222' 
LUMCON,ioos:station:LUMCON:101:1,2019-09-01T05:45:00Z,29.2533,-90.6633,1.0,3.3,47.0,3.7,'11111222,11111222,11111222' 
LUMCON,ioos:station:LUMCON:101:1,2019-09-01T06:00:00Z,29.2533,-90.6633,1.0,2.9,49.0,3.1,'11111222,11111222,11111222' 
LUMCON,ioos:station:LUMCON:101:1,2019-09-01T06:15:00Z,29.2533,-90.6633,1.0,2.3,47.0,3.4,'11111222,11111222,11111222' 
LUMCON,ioos:station:LUMCON:101:1,2019-09-01T06:30:00Z,29.2533,-90.6633,1.0,3.9,71.0,4.6,'11111222,11111222,11111222' 
LUMCON,ioos:station:LUMCON:101:1,2019-09-01T06:45:00Z,29.2533,-90.6633,1.0,2.9,53.0,3.3,'11111222,11111222,11111222' 
LUMCON,ioos:station:LUMCON:101:1,2019-09-01T07:00:00Z,29.2533,-90.6633,1.0,3.5,54.0,4.0,'11111222,11111222,11111222' 
LUMCON,ioos:station:LUMCON:101:1,2019-09-01T07:15:00Z,29.2533,-90.6633,1.0,2.8,35.0,3.2,'11111222,11111222,11111222' 
LUMCON,ioos:station:LUMCON:101:1,2019-09-01T07:30:00Z,29.2533,-90.6633,1.0,4.6,28.0,4.9,'11111222,11111222,11111222' 
LUMCON,ioos:station:LUMCON:101:1,2019-09-01T07:45:00Z,29.2533,-90.6633,1.0,1.9,46.0,2.1,'11111222,11111222,11111222' 
LUMCON,ioos:station:LUMCON:101:1,2019-09-01T08:00:00Z,29.2533,-90.6633,1.0,2.3,34.0,2.4,'11111222,11111222,11111222' 
LUMCON,ioos:station:LUMCON:101:1,2019-09-01T08:15:00Z,29.2533,-90.6633,1.0,2.0,41.0,2.2,'11111222,11111222,11111222' 
LUMCON,ioos:station:LUMCON:101:1,2019-09-01T08:30:00Z,29.2533,-90.6633,1.0,2.7,38.0,2.9,'11111222,11111222,11111222' 
LUMCON,ioos:station:LUMCON:101:1,2019-09-01T08:45:00Z,29.2533,-90.6633,1.0,2.4,27.0,2.6,'11111222,11111222,11111222' 
LUMCON,ioos:station:LUMCON:101:1,2019-09-01T09:00:00Z,29.2533,-90.6633,1.0,3.1,41.0,3.5,'11111222,11111222,11111222' 
LUMCON,ioos:station:LUMCON:101:1,2019-09-01T09:15:00Z,29.2533,-90.6633,1.0,2.6,21.0,3.1,'11111222,11111222,11111222' 
LUMCON,ioos:station:LUMCON:101:1,2019-09-01T09:30:00Z,29.2533,-90.6633,1.0,2.9,28.0,3.2,'11111222,11111222,11111222' 
LUMCON,ioos:station:LUMCON:101:1,2019-09-01T09:45:00Z,29.2533,-90.6633,1.0,4.3,20.0,5.0,'11111222,11111222,11111222' 
LUMCON,ioos:station:LUMCON:101:1,2019-09-01T10:00:00Z,29.2533,-90.6633,1.0,1.6,0.0,1.8,'11111222,11111222,11111222' 
LUMCON,ioos:station:LUMCON:101:1,2019-09-01T10:15:00Z,29.2533,-90.6633,1.0,2.7,1.0,3.2,'11111222,11111222,11111222' 
LUMCON,ioos:station:LUMCON:101:1,2019-09-01T10:30:00Z,29.2533,-90.6633,1.0,3.2,22.0,3.6,'11111222,11111222,11111222' 
LUMCON,ioos:station:LUMCON:101:1,2019-09-01T10:45:00Z,29.2533,-90.6633,1.0,2.8,14.0,3.2,'11111222,11111222,11111222' 
LUMCON,ioos:station:LUMCON:101:1,2019-09-01T11:00:00Z,29.2533,-90.6633,1.0,3.1,29.0,3.4,'11111222,11111222,11111222' 
LUMCON,ioos:station:LUMCON:101:1,2019-09-01T11:15:00Z,29.2533,-90.6633,1.0,3.1,1.0,3.3,'11111222,11111222,11111222' 
LUMCON,ioos:station:LUMCON:101:1,2019-09-01T11:30:00Z,29.2533,-90.6633,1.0,3.1,3.0,3.3,'11111222,11111222,11111222' 
LUMCON,ioos:station:LUMCON:101:1,2019-09-01T11:45:00Z,29.2533,-90.6633,1.0,3.4,2.0,3.6,'11111222,11111222,11111222' 
LUMCON,ioos:station:LUMCON:101:1,2019-09-01T12:00:00Z,29.2533,-90.6633,1.0,3.0,11.0,3.1,'11111222,11111222,11111222' 
LUMCON,ioos:station:LUMCON:101:1,2019-09-01T12:15:00Z,29.2533,-90.6633,1.0,3.7,20.0,4.0,'11111222,11111222,11111222' 
LUMCON,ioos:station:LUMCON:101:1,2019-09-01T12:30:00Z,29.2533,-90.6633,1.0,2.9,356.0,3.4,'11111222,11111222,11111222' 
LUMCON,ioos:station:LUMCON:101:1,2019-09-01T12:45:00Z,29.2533,-90.6633,1.0,4.0,6.0,4.3,'11111222,11111222,11111222' 
LUMCON,ioos:station:LUMCON:101:1,2019-09-01T13:00:00Z,29.2533,-90.6633,1.0,4.6,7.0,4.7,'11111222,11111222,11111222' 
LUMCON,ioos:station:LUMCON:101:1,2019-09-01T13:15:00Z,29.2533,-90.6633,1.0,3.1,11.0,3.3,'11111222,11111222,11111222' 
LUMCON,ioos:station:LUMCON:101:1,2019-09-01T13:30:00Z,29.2533,-90.6633,1.0,5.1,13.0,6.2,'11111222,11111222,11111222' 
LUMCON,ioos:station:LUMCON:101:1,2019-09-01T13:45:00Z,29.2533,-90.6633,1.0,4.4,21.0,4.8,'11111222,11111222,11111222' 
LUMCON,ioos:station:LUMCON:101:1,2019-09-01T14:00:00Z,29.2533,-90.6633,1.0,6.0,28.0,6.3,'11111222,11111222,11111222' 
LUMCON,ioos:station:LUMCON:101:1,2019-09-01T14:15:00Z,29.2533,-90.6633,1.0,5.8,7.0,6.5,'11111222,11111222,11111222' 
LUMCON,ioos:station:LUMCON:101:1,2019-09-01T14:30:00Z,29.2533,-90.6633,1.0,5.1,27.0,5.5,'11111222,11111222,11111222' 
LUMCON,ioos:station:LUMCON:101:1,2019-09-01T14:45:00Z,29.2533,-90.6633,1.0,4.1,21.0,4.5,'11111222,11111222,11111222' 
LUMCON,ioos:station:LUMCON:101:1,2019-09-01T15:00:00Z,29.2533,-90.6633,1.0,5.3,13.0,5.5,'11111222,11111222,11111222' 
LUMCON,ioos:station:LUMCON:101:1,2019-09-01T15:15:00Z,29.2533,-90.6633,1.0,7.7,27.0,7.9,'11111222,11111222,11111222' 
LUMCON,ioos:station:LUMCON:101:1,2019-09-01T15:30:00Z,29.2533,-90.6633,1.0,4.3,15.0,5.1,'11111222,11111222,11111222' 
LUMCON,ioos:station:LUMCON:101:1,2019-09-01T15:45:00Z,29.2533,-90.6633,1.0,4.9,12.0,5.1,'11111222,11111222,11111222' 
LUMCON,ioos:station:LUMCON:101:1,2019-09-01T16:00:00Z,29.2533,-90.6633,1.0,4.8,13.0,5.2,'11111222,11111222,11111222' 
LUMCON,ioos:station:LUMCON:101:1,2019-09-01T16:15:00Z,29.2533,-90.6633,1.0,8.4,46.0,9.6,'11111222,11111222,11111222' 
LUMCON,ioos:station:LUMCON:101:1,2019-09-01T16:30:00Z,29.2533,-90.6633,1.0,7.4,41.0,8.9,'11111222,11111222,11111222' 
LUMCON,ioos:station:LUMCON:101:1,2019-09-01T16:45:00Z,29.2533,-90.6633,1.0,3.7,53.0,4.4,'11111222,11111222,11111222' 
LUMCON,ioos:station:LUMCON:101:1,2019-09-01T17:00:00Z,29.2533,-90.6633,1.0,3.5,55.0,4.1,'11111222,11111222,11111222' 
LUMCON,ioos:station:LUMCON:101:1,2019-09-01T17:15:00Z,29.2533,-90.6633,1.0,4.2,55.0,4.5,'11111222,11111222,11111222' 
LUMCON,ioos:station:LUMCON:101:1,2019-09-01T17:30:00Z,29.2533,-90.6633,1.0,3.1,46.0,4.0,'11111222,11111222,11111222' 
LUMCON,ioos:station:LUMCON:101:1,2019-09-01T17:45:00Z,29.2533,-90.6633,1.0,3.8,52.0,5.1,'11111222,11111222,11111222' 
LUMCON,ioos:station:LUMCON:101:1,2019-09-01T18:00:00Z,29.2533,-90.6633,1.0,5.6,32.0,6.1,'11111222,11111222,11111222' 
LUMCON,ioos:station:LUMCON:101:1,2019-09-01T18:15:00Z,29.2533,-90.6633,1.0,3.2,42.0,4.1,'11111222,11111222,11111222' 
LUMCON,ioos:station:LUMCON:101:1,2019-09-01T18:30:00Z,29.2533,-90.6633,1.0,5.1,32.0,5.4,'11111222,11111222,11111222' 
LUMCON,ioos:station:LUMCON:101:1,2019-09-01T18:45:00Z,29.2533,-90.6633,1.0,5.9,69.0,7.0,'11111222,11111222,11111222' 
LUMCON,ioos:station:LUMCON:101:1,2019-09-01T19:00:00Z,29.2533,-90.6633,1.0,4.6,58.0,5.4,'11111222,11111222,11111222' 
LUMCON,ioos:station:LUMCON:101:1,2019-09-01T19:15:00Z,29.2533,-90.6633,1.0,5.9,59.0,7.1,'11111222,11111222,11111222' 
LUMCON,ioos:station:LUMCON:101:1,2019-09-01T19:30:00Z,29.2533,-90.6633,1.0,3.7,29.0,4.1,'11111222,11111222,11111222' 
LUMCON,ioos:station:LUMCON:101:1,2019-09-01T19:45:00Z,29.2533,-90.6633,1.0,5.3,26.0,5.5,'11111222,11111222,11111222' 
LUMCON,ioos:station:LUMCON:101:1,2019-09-01T20:00:00Z,29.2533,-90.6633,1.0,4.4,6.0,4.9,'11111222,11111222,11111222' 
LUMCON,ioos:station:LUMCON:101:1,2019-09-01T20:15:00Z,29.2533,-90.6633,1.0,3.8,40.0,4.0,'11111222,11111222,11111222' 
LUMCON,ioos:station:LUMCON:101:1,2019-09-01T20:30:00Z,29.2533,-90.6633,1.0,6.0,25.0,6.3,'11111222,11111222,11111222' 
LUMCON,ioos:station:LUMCON:101:1,2019-09-01T20:45:00Z,29.2533,-90.6633,1.0,5.5,27.0,6.0,'11111222,11111222,11111222' 
LUMCON,ioos:station:LUMCON:101:1,2019-09-01T21:00:00Z,29.2533,-90.6633,1.0,6.7,25.0,7.2,'11111222,11111222,11111222' 
LUMCON,ioos:station:LUMCON:101:1,2019-09-01T21:15:00Z,29.2533,-90.6633,1.0,5.5,29.0,6.7,'11111222,11111222,11111222' 
LUMCON,ioos:station:LUMCON:101:1,2019-09-01T21:30:00Z,29.2533,-90.6633,1.0,4.4,43.0,5.3,'11111222,11111222,11111222' 
LUMCON,ioos:station:LUMCON:101:1,2019-09-01T21:45:00Z,29.2533,-90.6633,1.0,5.8,31.0,6.6,'11111222,11111222,11111222' 
LUMCON,ioos:station:LUMCON:101:1,2019-09-01T22:00:00Z,29.2533,-90.6633,1.0,7.3,14.0,7.9,'11111222,11111222,11111222' 
LUMCON,ioos:station:LUMCON:101:1,2019-09-01T22:15:00Z,29.2533,-90.6633,1.0,6.0,36.0,6.5,'11111222,11111222,11111222' 
LUMCON,ioos:station:LUMCON:101:1,2019-09-01T22:30:00Z,29.2533,-90.6633,1.0,4.2,76.0,5.2,'11111222,11111222,11111222' 
LUMCON,ioos:station:LUMCON:101:1,2019-09-01T22:45:00Z,29.2533,-90.6633,1.0,3.8,37.0,4.7,'11111222,11111222,11111222' 
LUMCON,ioos:station:LUMCON:101:1,2019-09-01T23:00:00Z,29.2533,-90.6633,1.0,4.2,67.0,4.5,'11111222,11111222,11111222' 
LUMCON,ioos:station:LUMCON:101:1,2019-09-01T23:15:00Z,29.2533,-90.6633,1.0,3.7,39.0,4.4,'11111222,11111222,11111222' 
LUMCON,ioos:station:LUMCON:101:1,2019-09-01T23:30:00Z,29.2533,-90.6633,1.0,4.3,71.0,5.2,'11111222,11111222,11111222' 
LUMCON,ioos:station:LUMCON:101:1,2019-09-01T23:45:00Z,29.2533,-90.6633,1.0,2.2,52.0,2.6,'11111222,11111222,11111222' 
LUMCON,ioos:station:LUMCON:101:1,2019-09-02T00:00:00Z,29.2533,-90.6633,1.0,2.0,20.0,3.0,'11111222,11111222,11111222' 
LUMCON,ioos:station:LUMCON:101:1,2019-09-02T00:15:00Z,29.2533,-90.6633,1.0,3.2,27.0,3.4,'11111222,11111222,11111222' 
LUMCON,ioos:station:LUMCON:101:1,2019-09-02T00:30:00Z,29.2533,-90.6633,1.0,2.7,19.0,2.9,'11111222,11111222,11111222' 
LUMCON,ioos:station:LUMCON:101:1,2019-09-02T00:45:00Z,29.2533,-90.6633,1.0,5.1,24.0,5.2,'11111222,11111222,11111222' 
LUMCON,ioos:station:LUMCON:101:1,2019-09-02T01:00:00Z,29.2533,-90.6633,1.0,3.5,20.0,3.7,'11111222,11111222,11111222' 
LUMCON,ioos:station:LUMCON:101:1,2019-09-02T01:15:00Z,29.2533,-90.6633,1.0,4.2,13.0,4.6,'11111222,11111222,11111222' 
LUMCON,ioos:station:LUMCON:101:1,2019-09-02T01:30:00Z,29.2533,-90.6633,1.0,4.2,15.0,4.5,'11111222,11111222,11111222' 
LUMCON,ioos:station:LUMCON:101:1,2019-09-02T01:45:00Z,29.2533,-90.6633,1.0,3.8,35.0,5.1,'11111222,11111222,11111222' 
LUMCON,ioos:station:LUMCON:101:1,2019-09-02T02:00:00Z,29.2533,-90.6633,1.0,3.6,12.0,4.0,'11111222,11111222,11111222' 
LUMCON,ioos:station:LUMCON:101:1,2019-09-02T02:15:00Z,29.2533,-90.6633,1.0,5.8,27.0,5.9,'11111222,11111222,11111222' 
LUMCON,ioos:station:LUMCON:101:1,2019-09-02T02:30:00Z,29.2533,-90.6633,1.0,4.4,33.0,4.9,'11111222,11111222,11111222' 
LUMCON,ioos:station:LUMCON:101:1,2019-09-02T02:45:00Z,29.2533,-90.6633,1.0,5.5,27.0,6.0,'11111222,11111222,11111222' 
LUMCON,ioos:station:LUMCON:101:1,2019-09-02T03:00:00Z,29.2533,-90.6633,1.0,4.6,23.0,4.9,'11111222,11111222,11111222' 
LUMCON,ioos:station:LUMCON:101:1,2019-09-02T03:15:00Z,29.2533,-90.6633,1.0,4.0,14.0,4.2,'11111222,11111222,11111222' 
LUMCON,ioos:station:LUMCON:101:1,2019-09-02T03:30:00Z,29.2533,-90.6633,1.0,3.4,10.0,3.5,'11111222,11111222,11111222' 
LUMCON,ioos:station:LUMCON:101:1,2019-09-02T03:45:00Z,29.2533,-90.6633,1.0,3.4,10.0,3.8,'11111222,11111222,11111222' 
LUMCON,ioos:station:LUMCON:101:1,2019-09-02T04:00:00Z,29.2533,-90.6633,1.0,3.4,4.0,3.5,'11111222,11111222,11111222' 
LUMCON,ioos:station:LUMCON:101:1,2019-09-02T04:15:00Z,29.2533,-90.6633,1.0,3.5,3.0,3.9,'11111222,11111222,11111222' 
LUMCON,ioos:station:LUMCON:101:1,2019-09-02T04:30:00Z,29.2533,-90.6633,1.0,3.0,4.0,3.2,'11111222,11111222,11111222' 
LUMCON,ioos:station:LUMCON:101:1,2019-09-02T04:45:00Z,29.2533,-90.6633,1.0,4.0,14.0,4.1,'11111222,11111222,11111222' 
LUMCON,ioos:station:LUMCON:101:1,2019-09-02T05:00:00Z,29.2533,-90.6633,1.0,4.0,12.0,4.2,'11111222,11111222,11111222' 
LUMCON,ioos:station:LUMCON:101:1,2019-09-02T05:15:00Z,29.2533,-90.6633,1.0,3.7,16.0,3.9,'11111222,11111222,11111222' 
LUMCON,ioos:station:LUMCON:101:1,2019-09-02T05:30:00Z,29.2533,-90.6633,1.0,3.6,17.0,4.1,'11111222,11111222,11111222' 
LUMCON,ioos:station:LUMCON:101:1,2019-09-02T05:45:00Z,29.2533,-90.6633,1.0,3.0,19.0,3.2,'11111222,11111222,11111222' 
LUMCON,ioos:station:LUMCON:101:1,2019-09-02T06:00:00Z,29.2533,-90.6633,1.0,4.5,18.0,4.7,'11111222,11111222,11111222' 
LUMCON,ioos:station:LUMCON:101:1,2019-09-02T06:15:00Z,29.2533,-90.6633,1.0,3.2,21.0,3.3,'11111222,11111222,11111222' 
LUMCON,ioos:station:LUMCON:101:1,2019-09-02T06:30:00Z,29.2533,-90.6633,1.0,3.2,39.0,3.5,'11111222,11111222,11111222' 
LUMCON,ioos:station:LUMCON:101:1,2019-09-02T06:45:00Z,29.2533,-90.6633,1.0,3.1,12.0,3.7,'11111222,11111222,11111222' 
LUMCON,ioos:station:LUMCON:101:1,2019-09-02T07:00:00Z,29.2533,-90.6633,1.0,2.8,1.0,2.9,'11111222,11111222,11111222' 
LUMCON,ioos:station:LUMCON:101:1,2019-09-02T07:15:00Z,29.2533,-90.6633,1.0,3.1,6.0,3.4,'11111222,11111222,11111222' 
LUMCON,ioos:station:LUMCON:101:1,2019-09-02T07:30:00Z,29.2533,-90.6633,1.0,3.4,5.0,3.6,'11111222,11111222,11111222' 
LUMCON,ioos:station:LUMCON:101:1,2019-09-02T07:45:00Z,29.2533,-90.6633,1.0,4.4,9.0,4.5,'11111222,11111222,11111222' 
LUMCON,ioos:station:LUMCON:101:1,2019-09-02T08:00:00Z,29.2533,-90.6633,1.0,3.5,346.0,3.7,'11111222,11111222,11111222' 
LUMCON,ioos:station:LUMCON:101:1,2019-09-02T08:15:00Z,29.2533,-90.6633,1.0,3.2,356.0,3.5,'11111222,11111222,11111222' 
LUMCON,ioos:station:LUMCON:101:1,2019-09-02T08:30:00Z,29.2533,-90.6633,1.0,2.4,354.0,2.5,'11111222,11111222,11111222' 
LUMCON,ioos:station:LUMCON:101:1,2019-09-02T08:45:00Z,29.2533,-90.6633,1.0,2.8,339.0,3.0,'11111222,11111222,11111222' 
LUMCON,ioos:station:LUMCON:101:1,2019-09-02T09:00:00Z,29.2533,-90.6633,1.0,3.7,0.0,3.8,'11111222,11111222,11111222' 
LUMCON,ioos:station:LUMCON:101:1,2019-09-02T09:15:00Z,29.2533,-90.6633,1.0,2.5,7.0,2.9,'11111222,11111222,11111222' 
LUMCON,ioos:station:LUMCON:101:1,2019-09-02T09:30:00Z,29.2533,-90.6633,1.0,3.0,11.0,3.1,'11111222,11111222,11111222' 
LUMCON,ioos:station:LUMCON:101:1,2019-09-02T09:45:00Z,29.2533,-90.6633,1.0,2.3,351.0,2.4,'11111222,11111222,11111222' 
LUMCON,ioos:station:LUMCON:101:1,2019-09-02T10:00:00Z,29.2533,-90.6633,1.0,3.6,345.0,3.7,'11111222,11111222,11111222' 
LUMCON,ioos:station:LUMCON:101:1,2019-09-02T10:15:00Z,29.2533,-90.6633,1.0,4.1,340.0,4.2,'11111222,11111222,11111222' 
LUMCON,ioos:station:LUMCON:101:1,2019-09-02T10:30:00Z,29.2533,-90.6633,1.0,4.0,337.0,4.4,'11111222,11111222,11111222' 
LUMCON,ioos:station:LUMCON:101:1,2019-09-02T10:45:00Z,29.2533,-90.6633,1.0,3.1,350.0,3.2,'11111222,11111222,11111222' 
LUMCON,ioos:station:LUMCON:101:1,2019-09-02T11:00:00Z,29.2533,-90.6633,1.0,2.3,353.0,2.4,'11111222,11111222,11111222' 
LUMCON,ioos:station:LUMCON:101:1,2019-09-02T11:15:00Z,29.2533,-90.6633,1.0,2.7,356.0,2.9,'11111222,11111222,11111222' 
LUMCON,ioos:station:LUMCON:101:1,2019-09-02T11:30:00Z,29.2533,-90.6633,1.0,4.3,341.0,4.8,'11111222,11111222,11111222' 
LUMCON,ioos:station:LUMCON:101:1,2019-09-02T11:45:00Z,29.2533,-90.6633,1.0,4.7,344.0,5.0,'11111222,11111222,11111222' 
LUMCON,ioos:station:LUMCON:101:1,2019-09-02T12:00:00Z,29.2533,-90.6633,1.0,4.6,344.0,4.8,'11111222,11111222,11111222' 
LUMCON,ioos:station:LUMCON:101:1,2019-09-02T12:15:00Z,29.2533,-90.6633,1.0,3.3,352.0,3.7,'11111222,11111222,11111222' 
LUMCON,ioos:station:LUMCON:101:1,2019-09-02T12:30:00Z,29.2533,-90.6633,1.0,4.0,0.0,4.2,'11111222,11111222,11111222' 
LUMCON,ioos:station:LUMCON:101:1,2019-09-02T12:45:00Z,29.2533,-90.6633,1.0,4.4,358.0,4.7,'11111222,11111222,11111222' 
LUMCON,ioos:station:LUMCON:101:1,2019-09-02T13:30:00Z,29.2533,-90.6633,1.0,7.4,10.0,7.8,'11111222,11111222,11111222' 
LUMCON,ioos:station:LUMCON:101:1,2019-09-02T13:45:00Z,29.2533,-90.6633,1.0,6.0,356.0,6.5,'11111222,11111222,11111222' 
LUMCON,ioos:station:LUMCON:101:1,2019-09-02T14:00:00Z,29.2533,-90.6633,1.0,7.5,18.0,7.7,'11111222,11111222,11111222' 
LUMCON,ioos:station:LUMCON:101:1,2019-09-02T14:15:00Z,29.2533,-90.6633,1.0,5.4,24.0,5.9,'11111222,11111222,11111222' 
LUMCON,ioos:station:LUMCON:101:1,2019-09-02T14:30:00Z,29.2533,-90.6633,1.0,6.2,6.0,7.2,'11111222,11111222,11111222' 
LUMCON,ioos:station:LUMCON:101:1,2019-09-02T14:45:00Z,29.2533,-90.6633,1.0,5.1,5.0,5.6,'11111222,11111222,11111222' 
LUMCON,ioos:station:LUMCON:101:1,2019-09-02T15:00:00Z,29.2533,-90.6633,1.0,5.7,341.0,6.7,'11111222,11111222,11111222' 
LUMCON,ioos:station:LUMCON:101:1,2019-09-02T15:15:00Z,29.2533,-90.6633,1.0,4.8,8.0,5.7,'11111222,11111222,11111222' 
LUMCON,ioos:station:LUMCON:101:1,2019-09-02T15:30:00Z,29.2533,-90.6633,1.0,5.8,7.0,6.0,'11111222,11111222,11111222' 
LUMCON,ioos:station:LUMCON:101:1,2019-09-02T15:45:00Z,29.2533,-90.6633,1.0,5.4,346.0,6.1,'11111222,11111222,11111222' 
LUMCON,ioos:station:LUMCON:101:1,2019-09-02T16:00:00Z,29.2533,-90.6633,1.0,5.5,7.0,5.6,'11111222,11111222,11111222' 
LUMCON,ioos:station:LUMCON:101:1,2019-09-02T16:15:00Z,29.2533,-90.6633,1.0,5.8,13.0,6.4,'11111222,11111222,11111222' 
LUMCON,ioos:station:LUMCON:101:1,2019-09-02T16:30:00Z,29.2533,-90.6633,1.0,4.1,16.0,5.2,'11111222,11111222,11111222' 
LUMCON,ioos:station:LUMCON:101:1,2019-09-02T16:45:00Z,29.2533,-90.6633,1.0,7.1,14.0,7.3,'11111222,11111222,11111222' 
LUMCON,ioos:station:LUMCON:101:1,2019-09-02T17:00:00Z,29.2533,-90.6633,1.0,7.3,11.0,7.8,'11111222,11111222,11111222' 
LUMCON,ioos:station:LUMCON:101:1,2019-09-02T17:15:00Z,29.2533,-90.6633,1.0,6.2,351.0,6.5,'11111222,11111222,11111222' 
LUMCON,ioos:station:LUMCON:101:1,2019-09-02T17:30:00Z,29.2533,-90.6633,1.0,6.8,22.0,7.2,'11111222,11111222,11111222' 
LUMCON,ioos:station:LUMCON:101:1,2019-09-02T17:45:00Z,29.2533,-90.6633,1.0,7.0,30.0,7.8,'11111222,11111222,11111222' 
LUMCON,ioos:station:LUMCON:101:1,2019-09-02T18:00:00Z,29.2533,-90.6633,1.0,5.9,21.0,6.5,'11111222,11111222,11111222' 
LUMCON,ioos:station:LUMCON:101:1,2019-09-02T18:15:00Z,29.2533,-90.6633,1.0,3.1,35.0,4.3,'11111222,11111222,11111222' 
LUMCON,ioos:station:LUMCON:101:1,2019-09-02T18:30:00Z,29.2533,-90.6633,1.0,5.2,42.0,6.7,'11111222,11111222,11111222' 
LUMCON,ioos:station:LUMCON:101:1,2019-09-02T18:45:00Z,29.2533,-90.6633,1.0,7.3,24.0,7.6,'11111222,11111222,11111222' 
LUMCON,ioos:station:LUMCON:101:1,2019-09-02T19:00:00Z,29.2533,-90.6633,1.0,3.5,49.0,3.8,'11111222,11111222,11111222' 
LUMCON,ioos:station:LUMCON:101:1,2019-09-02T19:15:00Z,29.2533,-90.6633,1.0,6.1,31.0,7.5,'11111222,11111222,11111222' 
LUMCON,ioos:station:LUMCON:101:1,2019-09-02T19:30:00Z,29.2533,-90.6633,1.0,6.7,36.0,7.5,'11111222,11111222,11111222' 
LUMCON,ioos:station:LUMCON:101:1,2019-09-02T19:45:00Z,29.2533,-90.6633,1.0,7.3,33.0,8.2,'11111222,11111222,11111222' 
LUMCON,ioos:station:LUMCON:101:1,2019-09-02T20:00:00Z,29.2533,-90.6633,1.0,5.5,73.0,6.5,'11111222,11111222,11111222' 
LUMCON,ioos:station:LUMCON:101:1,2019-09-02T20:15:00Z,29.2533,-90.6633,1.0,3.9,30.0,4.5,'11111222,11111222,11111222' 
LUMCON,ioos:station:LUMCON:101:1,2019-09-02T20:30:00Z,29.2533,-90.6633,1.0,6.4,40.0,7.5,'11111222,11111222,11111222' 
LUMCON,ioos:station:LUMCON:101:1,2019-09-02T20:45:00Z,29.2533,-90.6633,1.0,5.1,31.0,6.2,'11111222,11111222,11111222' 
LUMCON,ioos:station:LUMCON:101:1,2019-09-02T21:00:00Z,29.2533,-90.6633,1.0,7.3,30.0,8.1,'11111222,11111222,11111222' 
LUMCON,ioos:station:LUMCON:101:1,2019-09-02T21:15:00Z,29.2533,-90.6633,1.0,4.9,22.0,6.0,'11111222,11111222,11111222' 
LUMCON,ioos:station:LUMCON:101:1,2019-09-02T21:30:00Z,29.2533,-90.6633,1.0,4.5,62.0,5.2,'11111222,11111222,11111222' 
LUMCON,ioos:station:LUMCON:101:1,2019-09-02T21:45:00Z,29.2533,-90.6633,1.0,5.3,47.0,5.9,'11111222,11111222,11111222' 
LUMCON,ioos:station:LUMCON:101:1,2019-09-02T22:00:00Z,29.2533,-90.6633,1.0,6.5,38.0,7.6,'11111222,11111222,11111222' 
LUMCON,ioos:station:LUMCON:101:1,2019-09-02T22:15:00Z,29.2533,-90.6633,1.0,6.1,50.0,7.7,'11111222,11111222,11111222' 
LUMCON,ioos:station:LUMCON:101:1,2019-09-02T22:30:00Z,29.2533,-90.6633,1.0,7.5,32.0,8.0,'11111222,11111222,11111222' 
LUMCON,ioos:station:LUMCON:101:1,2019-09-02T22:45:00Z,29.2533,-90.6633,1.0,4.2,41.0,4.9,'11111222,11111222,11111222' 
LUMCON,ioos:station:LUMCON:101:1,2019-09-02T23:00:00Z,29.2533,-90.6633,1.0,6.9,30.0,7.3,'11111222,11111222,11111222' 
LUMCON,ioos:station:LUMCON:101:1,2019-09-02T23:15:00Z,29.2533,-90.6633,1.0,6.8,31.0,7.1,'11111222,11111222,11111222' 
LUMCON,ioos:station:LUMCON:101:1,2019-09-02T23:30:00Z,29.2533,-90.6633,1.0,6.2,31.0,6.8,'11111222,11111222,11111222' 
LUMCON,ioos:station:LUMCON:101:1,2019-09-02T23:45:00Z,29.2533,-90.6633,1.0,6.8,41.0,7.6,'11111222,11111222,11111222' 
LUMCON,ioos:station:LUMCON:101:1,2019-09-03T00:00:00Z,29.2533,-90.6633,1.0,4.5,34.0,5.1,'11111222,11111222,11111222' 
LUMCON,ioos:station:LUMCON:101:1,2019-09-03T00:15:00Z,29.2533,-90.6633,1.0,4.7,35.0,5.7,'11111222,11111222,11111222' 
LUMCON,ioos:station:LUMCON:101:1,2019-09-03T00:30:00Z,29.2533,-90.6633,1.0,2.5,44.0,3.3,'11111222,11111222,11111222' 
LUMCON,ioos:station:LUMCON:101:1,2019-09-03T00:45:00Z,29.2533,-90.6633,1.0,2.6,47.0,2.8,'11111222,11111222,11111222' 
LUMCON,ioos:station:LUMCON:101:1,2019-09-03T01:00:00Z,29.2533,-90.6633,1.0,4.6,35.0,6.0,'11111222,11111222,11111222' 
LUMCON,ioos:station:LUMCON:101:1,2019-09-03T01:15:00Z,29.2533,-90.6633,1.0,4.4,48.0,5.6,'11111222,11111222,11111222' 
LUMCON,ioos:station:LUMCON:101:1,2019-09-03T01:30:00Z,29.2533,-90.6633,1.0,5.5,45.0,5.8,'11111222,11111222,11111222' 
LUMCON,ioos:station:LUMCON:101:1,2019-09-03T01:45:00Z,29.2533,-90.6633,1.0,3.8,30.0,4.2,'11111222,11111222,11111222' 
LUMCON,ioos:station:LUMCON:101:1,2019-09-03T02:00:00Z,29.2533,-90.6633,1.0,3.8,50.0,4.2,'11111222,11111222,11111222' 
LUMCON,ioos:station:LUMCON:101:1,2019-09-03T02:15:00Z,29.2533,-90.6633,1.0,4.7,30.0,5.4,'11111222,11111222,11111222' 
LUMCON,ioos:station:LUMCON:101:1,2019-09-03T02:30:00Z,29.2533,-90.6633,1.0,4.0,41.0,4.2,'11111222,11111222,11111222' 
LUMCON,ioos:station:LUMCON:101:1,2019-09-03T02:45:00Z,29.2533,-90.6633,1.0,3.9,46.0,4.2,'11111222,11111222,11111222' 